Wind_Speed
30 30 30 31 31 33 34 35 36 36 36 36 36 37 36 37 37 37 37 37 37 38 39 39 39 40 41 42 40 40 40 40 41 41 41 41 41 42 42 42 43 44 43 43
31 31 31 32 32 33 34 35 35 35 35 36 36 36 36 36 36 36 36 36 37 38 38 39 39 40 41 41 41 40 40 40 41 41 42 42 42 43 44 43 43 44 45 45
32 32 32 32 32 33 34 35 35 34 33 34 35 35 35 35 35 34 34 35 37 37 38 38 39 39 41 41 41 40 40 40 42 42 42 43 43 43 44 45 44 45 45 45
32 32 32 32 32 34 34 34 34 33 32 32 33 35 32 32 33 33 33 34 35 36 37 37 38 38 39 40 40 39 40 41 42 42 42 42 43 44 44 45 45 46 46 47
32 32 31 32 32 33 34 34 33 32 32 32 32 34 31 31 32 32 33 33 34 35 35 36 36 37 38 39 40 40 40 40 41 42 42 42 42 44 45 47 47 47 47 48
31 31 31 31 32 33 34 33 33 32 32 32 30 32 31 31 31 32 32 32 33 34 34 35 36 35 36 38 38 40 40 41 41 42 43 44 43 44 45 47 48 48 49 49
31 31 31 31 32 32 32 32 32 33 32 31 30 31 30 31 31 31 32 32 32 33 34 34 34 34 34 35 37 39 40 40 40 42 42 44 43 44 45 46 48 49 50 50
32 31 31 31 31 31 31 31 32 33 33 32 31 31 30 30 31 31 31 31 32 32 33 32 32 33 33 34 36 38 39 40 40 41 41 43 43 45 46 46 47 48 49 50
32 32 31 31 30 30 30 30 32 34 34 34 32 31 30 30 31 30 30 30 31 32 32 32 31 32 32 33 35 36 38 39 40 40 41 41 42 45 46 47 48 48 48 49
33 33 32 31 31 30 30 30 31 32 34 34 33 31 30 30 31 31 30 30 30 31 30 31 31 31 31 33 34 36 37 38 39 40 40 41 42 44 47 48 49 49 49 50
33 34 33 33 31 31 30 30 30 32 33 34 34 31 30 31 31 32 31 30 31 30 31 31 31 32 32 33 34 36 37 37 39 40 40 41 42 44 46 48 48 49 50 50
33 34 33 32 32 31 31 30 30 31 32 33 34 32 31 31 31 32 32 31 31 31 31 31 32 32 33 34 34 35 36 37 38 40 40 41 41 43 45 46 46 47 49 50
33 33 33 33 32 32 33 32 31 31 32 32 34 32 32 32 32 32 31 31 31 31 32 32 33 33 33 33 35 36 36 37 38 40 41 41 41 42 43 44 45 46 46 48
33 32 33 33 33 33 32 32 32 31 31 32 32 32 32 33 33 32 32 32 32 32 33 33 33 34 34 34 35 35 36 36 38 40 42 42 42 42 43 44 45 45 46 47
33 34 34 33 33 33 33 32 33 33 32 32 31 31 31 32 32 32 33 33 33 34 33 33 34 34 35 35 35 35 37 37 38 40 42 43 44 44 44 44 45 46 46 46
34 34 35 34 33 34 33 32 33 33 33 33 32 31 31 32 31 32 33 34 35 34 34 34 34 34 35 35 35 35 37 37 38 40 43 43 43 44 44 44 45 45 45 46
34 35 35 34 33 33 33 32 32 32 32 32 33 33 33 33 32 32 32 33 34 34 34 34 33 33 34 34 35 35 36 37 38 40 42 42 43 43 43 43 43 44 44 45
34 34 33 33 32 32 32 31 32 32 32 32 32 33 33 33 33 32 32 32 33 33 34 33 32 33 34 34 34 35 35 36 37 39 40 41 42 42 42 42 42 42 43 44
32 32 33 32 32 31 30 31 31 32 31 31 31 32 32 32 33 33 32 32 32 31 32 32 32 32 33 33 33 34 35 35 36 37 39 40 41 41 40 40 40 41 42 42
32 32 33 32 32 31 30 30 31 32 32 31 31 31 32 32 32 32 32 31 30 29 30 30 31 31 31 31 33 33 34 34 35 35 36 37 38 39 39 39 39 40 40 40
30 31 31 31 32 32 31 30 31 31 31 31 31 31 31 32 32 31 31 30 29 29 28 28 28 29 29 30 30 31 31 32 32 32 33 35 36 37 37 37 38 39 39 39
29 30 30 31 31 31 30 30 30 31 31 31 31 31 31 31 31 30 29 28 28 28 28 27 27 27 27 28 29 29 29 29 30 30 31 33 34 35 36 36 37 37 38 38
28 29 30 30 30 30 29 29 30 30 30 31 30 31 31 31 30 30 29 28 28 29 28 27 26 26 25 25 26 27 27 27 28 28 29 31 33 33 34 35 35 36 37 37
28 28 29 29 29 29 28 28 28 28 28 29 29 30 30 30 30 30 30 29 29 29 28 27 26 25 25 24 24 24 24 25 26 27 28 30 31 31 32 33 34 35 35 35
28 29 29 29 28 28 28 27 27 26 27 27 28 28 29 30 29 30 30 29 29 29 28 27 26 25 24 24 24 24 24 25 25 25 26 27 29 30 31 32 32 33 34 34
28 29 29 28 28 27 26 26 25 25 25 25 25 27 28 28 28 28 28 28 28 28 27 27 26 25 24 24 24 23 23 24 24 25 26 27 27 28 30 31 32 32 34 34
Wind_Direction
285 284 285 285 284 284 285 285 284 282 278 275 273 271 269 269 267 267 265 263 263 264 263 262 262 260 256 253 252 251 250 248 247 245 245 244 243 241 239 238 238 237 235 234
284 284 285 284 284 285 286 286 285 283 280 276 273 271 270 269 267 267 265 264 263 263 262 262 261 261 257 253 252 251 250 248 247 246 245 244 244 241 238 238 237 236 235 234
285 285 285 285 284 285 287 288 287 285 281 279 277 272 270 269 267 265 264 264 264 264 263 261 261 259 255 252 251 250 250 249 247 246 245 244 243 240 238 237 236 235 235 235
287 287 285 284 285 287 289 289 287 285 283 283 281 276 269 267 265 265 265 265 266 265 264 261 260 258 254 251 251 250 249 247 246 245 244 244 243 240 239 237 237 236 235 235
289 290 288 286 286 288 289 289 287 285 284 284 283 278 271 267 266 266 266 267 267 264 263 261 260 258 254 253 252 251 249 247 245 244 243 244 243 241 239 237 236 236 236 236
291 291 291 289 288 289 289 288 286 285 285 284 282 280 275 269 268 269 269 268 267 264 262 260 258 256 253 254 252 251 249 248 246 245 244 244 243 241 239 237 237 237 237 237
292 292 292 289 288 290 290 288 287 287 286 285 282 280 277 273 271 272 271 268 265 262 261 259 258 255 255 253 252 251 249 248 246 246 245 245 242 241 240 239 238 238 238 237
294 293 293 290 288 291 291 289 289 289 287 286 283 280 279 276 274 276 273 268 265 262 260 258 257 257 257 253 254 253 250 247 245 245 244 244 243 241 241 241 239 240 239 238
295 294 294 292 289 290 292 291 290 290 287 286 284 281 279 278 275 278 277 271 265 262 261 259 259 259 257 255 254 253 251 247 245 245 245 244 244 242 241 241 241 240 240 240
294 293 293 291 288 289 291 292 291 290 289 287 284 281 280 279 278 277 279 272 266 260 259 261 260 260 258 256 254 255 253 249 245 245 245 244 243 243 243 243 244 243 242 242
293 293 293 292 289 288 290 290 290 289 287 286 284 280 279 281 279 279 278 274 269 262 262 263 262 261 260 258 256 254 253 251 248 246 245 245 244 244 243 244 244 245 243 243
291 293 293 293 290 287 288 289 289 288 286 283 282 280 279 280 279 280 279 274 268 264 267 267 265 262 260 259 258 256 255 253 251 248 247 245 244 246 245 245 245 245 243 242
292 292 293 292 291 288 287 288 288 287 283 280 280 279 278 277 278 279 278 273 268 267 269 269 268 265 262 259 258 256 256 254 252 250 247 245 245 246 245 245 245 245 244 243
290 291 291 292 291 289 287 287 286 286 283 281 281 278 277 277 277 277 276 272 270 272 271 271 270 269 265 262 261 257 255 255 253 250 248 246 245 245 245 245 245 245 244 243
290 291 291 290 289 288 286 286 286 285 284 283 282 280 278 277 277 274 272 272 273 274 271 271 271 270 267 264 262 259 257 255 255 252 249 246 244 245 245 245 245 245 245 243
290 292 291 289 288 287 286 285 285 285 284 283 281 279 279 278 277 276 276 275 274 273 272 272 271 271 268 264 261 260 257 254 255 252 248 246 245 245 247 247 247 246 246 244
291 293 293 290 289 288 287 286 286 286 284 283 282 280 278 278 279 278 277 277 276 274 273 272 272 271 268 265 262 260 258 254 254 252 248 247 246 246 247 248 247 246 246 245
292 293 293 293 292 290 291 289 287 285 285 284 283 280 279 279 280 280 280 280 279 278 275 274 272 270 268 266 263 260 259 256 253 251 249 247 246 246 247 248 247 246 246 246
292 292 292 293 294 293 292 292 291 288 286 284 282 281 279 279 280 280 280 281 281 279 277 275 273 271 268 266 263 260 260 257 254 252 250 248 245 246 247 247 247 247 246 247
292 293 292 292 292 294 295 293 292 291 288 286 283 282 281 280 280 280 280 280 281 279 277 277 274 271 269 266 264 262 261 258 254 251 250 248 246 247 247 247 247 247 246 246
292 293 293 292 292 293 294 294 292 290 290 287 284 283 282 282 282 282 281 281 280 281 279 278 276 272 270 267 265 264 263 259 254 251 249 248 247 248 248 247 247 247 246 245
293 293 292 292 292 293 292 292 290 290 289 288 285 283 282 282 282 282 281 281 280 280 280 279 277 274 271 267 265 262 262 259 255 252 251 250 249 249 250 248 248 247 246 246
291 293 292 291 291 292 291 291 291 290 289 288 286 284 283 283 282 281 281 281 281 279 278 279 278 276 273 269 265 261 258 256 254 253 252 252 251 251 250 250 249 247 246 246
290 291 292 292 291 289 290 290 291 291 290 288 287 285 284 283 282 281 281 281 280 278 277 278 277 277 274 271 268 263 260 257 256 256 255 254 252 251 251 251 250 248 246 245
289 289 291 291 290 288 288 289 289 289 289 289 289 287 285 283 282 282 281 280 280 279 277 277 276 275 273 270 269 266 262 259 257 256 254 253 252 250 250 251 251 248 246 247
288 288 289 290 290 289 288 288 287 287 289 290 291 290 287 284 283 282 281 280 279 279 277 276 275 274 273 270 269 268 264 259 256 256 255 252 250 250 250 250 250 249 248 250
Height
5708 5707 5704 5701 5699 5696 5693 5691 5689 5687 5685 5682 5681 5681 5682 5682 5681 5682 5682 5683 5684 5685 5686 5687 5687 5687 5688 5690 5692 5695 5697 5699 5702 5705 5708 5710 5713 5715 5719 5723 5727 5732 5737 5742
5700 5698 5695 5692 5689 5686 5684 5681 5679 5677 5674 5671 5670 5671 5671 5671 5671 5671 5672 5672 5673 5674 5674 5675 5675 5675 5676 5678 5681 5683 5686 5688 5691 5694 5697 5700 5702 5705 5709 5712 5717 5721 5727 5731
5690 5689 5686 5683 5680 5677 5675 5672 5669 5667 5664 5662 5660 5661 5662 5661 5660 5661 5661 5661 5661 5662 5662 5662 5663 5663 5664 5666 5669 5672 5674 5677 5680 5682 5685 5688 5690 5693 5698 5702 5706 5711 5716 5721
5681 5680 5677 5674 5671 5668 5666 5663 5660 5657 5654 5653 5651 5649 5653 5651 5651 5651 5651 5650 5651 5651 5650 5651 5651 5651 5653 5655 5657 5660 5663 5665 5668 5671 5674 5676 5679 5683 5687 5692 5696 5700 5705 5711
5673 5670 5668 5665 5663 5659 5657 5654 5651 5648 5645 5644 5642 5639 5643 5641 5641 5641 5640 5640 5640 5640 5640 5640 5640 5640 5642 5644 5646 5648 5651 5654 5656 5659 5662 5665 5668 5671 5676 5680 5685 5689 5694 5699
5664 5661 5659 5656 5654 5651 5648 5645 5642 5639 5636 5635 5634 5631 5632 5631 5630 5630 5630 5629 5629 5629 5629 5629 5628 5629 5631 5633 5634 5637 5640 5642 5645 5647 5650 5654 5657 5660 5664 5669 5673 5678 5683 5688
5656 5653 5650 5648 5645 5643 5640 5637 5633 5630 5627 5626 5625 5622 5623 5621 5620 5620 5619 5619 5618 5618 5618 5618 5618 5620 5621 5622 5623 5626 5628 5631 5633 5636 5639 5642 5645 5649 5653 5657 5661 5666 5670 5675
5647 5646 5642 5639 5637 5634 5631 5628 5625 5621 5618 5617 5616 5614 5614 5612 5611 5610 5609 5609 5608 5608 5608 5609 5610 5610 5611 5612 5613 5615 5617 5620 5622 5625 5628 5631 5634 5637 5641 5645 5649 5654 5658 5663
5638 5637 5634 5631 5628 5626 5622 5619 5617 5614 5610 5608 5607 5606 5605 5603 5602 5600 5599 5599 5598 5599 5599 5600 5600 5601 5601 5602 5603 5604 5606 5608 5611 5614 5617 5620 5623 5626 5629 5633 5636 5641 5645 5650
5630 5627 5626 5622 5620 5617 5615 5611 5609 5605 5601 5598 5598 5597 5597 5594 5593 5592 5591 5589 5589 5589 5590 5590 5590 5591 5591 5592 5593 5594 5595 5597 5600 5603 5606 5609 5612 5615 5618 5621 5625 5628 5633 5637
5621 5619 5617 5614 5611 5609 5607 5604 5600 5597 5594 5591 5588 5592 5589 5586 5584 5583 5582 5580 5580 5580 5580 5580 5581 5581 5582 5582 5583 5584 5585 5587 5589 5592 5595 5597 5600 5603 5606 5609 5612 5616 5620 5624
5612 5610 5607 5605 5603 5600 5597 5595 5592 5590 5586 5583 5580 5584 5580 5578 5576 5574 5573 5571 5571 5571 5571 5571 5571 5571 5572 5572 5573 5574 5575 5576 5578 5580 5583 5586 5588 5591 5594 5597 5600 5604 5607 5611
5603 5601 5598 5596 5596 5592 5589 5586 5583 5581 5578 5575 5573 5576 5572 5570 5567 5566 5564 5562 5562 5562 5562 5561 5561 5561 5561 5562 5562 5563 5564 5565 5566 5568 5571 5574 5576 5579 5582 5585 5588 5592 5595 5599
5595 5592 5590 5588 5584 5582 5579 5578 5575 5572 5569 5567 5566 5565 5564 5561 5559 5557 5555 5554 5553 5553 5552 5551 5551 5550 5550 5551 5551 5552 5553 5553 5555 5557 5559 5562 5565 5568 5571 5574 5577 5580 5583 5586
5586 5584 5581 5578 5575 5572 5571 5569 5566 5563 5561 5559 5558 5555 5554 5551 5550 5549 5547 5546 5544 5543 5542 5541 5541 5540 5539 5539 5540 5540 5541 5542 5543 5545 5547 5550 5553 5556 5559 5562 5565 5568 5571 5574
5576 5574 5571 5569 5566 5563 5561 5560 5557 5554 5552 5550 5548 5547 5545 5543 5541 5539 5538 5537 5535 5534 5533 5532 5531 5530 5529 5528 5529 5528 5529 5530 5531 5533 5535 5538 5541 5544 5547 5550 5553 5556 5558 5561
5567 5564 5561 5559 5557 5553 5552 5551 5548 5545 5543 5541 5539 5538 5535 5534 5532 5530 5528 5527 5525 5524 5522 5521 5520 5519 5519 5518 5518 5518 5518 5519 5520 5521 5523 5526 5529 5533 5535 5538 5541 5544 5546 5549
5558 5555 5551 5549 5547 5544 5545 5541 5539 5536 5534 5532 5530 5528 5526 5525 5523 5521 5519 5517 5515 5514 5513 5511 5510 5510 5509 5508 5507 5507 5507 5507 5509 5510 5513 5515 5518 5522 5524 5527 5530 5532 5535 5537
5549 5546 5542 5540 5537 5536 5536 5532 5529 5526 5525 5523 5521 5519 5517 5516 5515 5513 5510 5508 5506 5505 5503 5502 5501 5500 5499 5498 5498 5498 5497 5498 5498 5500 5502 5504 5508 5511 5514 5516 5519 5521 5524 5526
5540 5537 5535 5531 5528 5527 5527 5524 5519 5518 5516 5514 5511 5510 5508 5506 5506 5505 5501 5499 5497 5496 5494 5492 5491 5490 5489 5489 5488 5488 5488 5488 5488 5490 5492 5494 5497 5500 5503 5506 5508 5510 5513 5515
5532 5529 5526 5522 5519 5518 5518 5514 5511 5510 5508 5505 5502 5500 5498 5496 5495 5494 5492 5490 5488 5487 5485 5484 5482 5481 5480 5480 5479 5478 5478 5478 5480 5481 5483 5485 5487 5490 5493 5495 5498 5500 5502 5504
5523 5520 5517 5514 5511 5512 5508 5505 5503 5501 5497 5495 5493 5491 5489 5487 5486 5484 5482 5481 5480 5478 5477 5475 5474 5473 5472 5471 5470 5470 5470 5470 5471 5473 5475 5476 5478 5481 5483 5486 5488 5490 5492 5494
5514 5512 5508 5506 5505 5501 5498 5496 5494 5491 5489 5486 5484 5482 5480 5479 5477 5475 5474 5473 5471 5470 5469 5467 5466 5465 5464 5463 5462 5462 5462 5463 5463 5465 5466 5468 5470 5472 5474 5476 5478 5480 5482 5484
5506 5502 5499 5497 5495 5492 5490 5487 5485 5483 5480 5478 5476 5473 5471 5470 5468 5467 5465 5464 5463 5462 5461 5460 5459 5458 5457 5455 5455 5454 5454 5455 5456 5457 5458 5460 5462 5464 5466 5467 5469 5471 5473 5475
5497 5493 5491 5488 5486 5484 5482 5479 5477 5475 5472 5470 5467 5465 5463 5461 5460 5459 5457 5456 5455 5454 5453 5452 5451 5450 5449 5448 5448 5447 5447 5447 5448 5450 5451 5452 5453 5455 5457 5458 5459 5461 5463 5465
5488 5485 5483 5481 5478 5476 5474 5472 5469 5467 5465 5462 5460 5458 5455 5453 5452 5451 5449 5448 5447 5446 5445 5444 5443 5443 5442 5441 5440 5440 5439 5440 5441 5442 5443 5444 5445 5447 5449 5450 5451 5452 5454 5457